Comisión Nacional del Agua
Subdirección General Técnica
Estación: San Agustín
Clave: C02043
Estado: Baja California
Municipio: Ensenada

Fecha, Precipitación(mm), Temperatura Media(ºC), Temperatura Máxima(ºC), Temperatura Mínima(ºC), Evaporación(mm)
1956/08/08,0.00,-,-,-,-
1956/08/09,0.00,28.50,37.50,19.50,-
1956/08/10,0.00,29.25,39.50,19.00,-
1956/08/11,0.00,24.75,34.00,15.50,-
1956/08/12,0.00,23.75,32.50,15.00,-
1956/08/13,0.00,25.75,36.50,15.00,-
1956/08/14,0.00,28.50,41.00,16.00,-
1956/08/15,0.00,29.25,40.50,18.00,-
1956/08/16,0.00,24.20,34.40,14.00,9.40
1956/08/17,0.00,22.75,35.00,10.50,8.00
1956/08/18,0.00,24.50,37.00,12.00,8.80
1956/08/19,0.00,22.50,37.00,8.00,9.20
1956/08/20,0.00,24.25,37.00,11.50,8.10
1956/08/21,0.00,26.50,40.00,13.00,7.30
1956/08/22,0.00,29.25,40.00,18.50,11.30
1956/08/23,0.00,30.75,40.50,21.00,8.50
1956/08/24,0.00,27.00,37.00,17.00,5.00
1956/08/25,0.00,28.00,40.00,16.00,8.00
1956/08/26,0.00,28.25,38.50,18.00,7.00
1956/08/27,0.00,21.00,30.00,12.00,8.80
1956/08/28,0.00,22.75,34.50,11.00,3.40
1956/08/29,0.00,21.25,32.00,10.50,5.50
1956/08/30,0.00,22.75,33.50,12.00,3.80
1956/08/31,0.00,23.25,36.50,10.00,5.10
1956/09/01,0.00,23.50,38.00,9.00,8.10
1956/09/02,0.00,26.00,40.00,12.00,7.10
1956/09/03,0.00,28.00,40.00,16.00,5.00
1956/09/04,0.00,27.75,40.50,15.00,4.00
1956/09/05,0.00,26.00,37.50,14.50,5.70
1956/09/06,0.00,27.50,39.50,15.50,6.90
1956/09/07,0.00,28.25,39.00,17.50,5.70
1956/09/08,0.00,27.25,38.50,16.00,6.10
1956/09/09,0.00,28.00,37.50,18.50,7.60
1956/09/10,0.00,30.75,40.00,21.50,7.80
1956/09/11,0.00,30.00,39.50,20.50,5.20
1956/09/12,0.00,26.50,40.00,13.00,7.00
1956/09/13,0.00,27.00,40.00,14.00,7.70
1956/09/14,0.00,28.25,40.50,16.00,6.40
1956/09/15,0.00,28.50,37.00,20.00,6.00
1956/09/16,0.00,28.50,37.00,20.00,6.20
1956/09/17,0.00,32.25,41.50,23.00,8.40
1956/09/18,0.00,27.00,41.00,13.00,6.30
1956/09/19,0.00,28.75,40.50,17.00,8.20
1956/09/20,0.00,26.25,39.00,13.50,7.50
1956/09/21,0.00,23.00,37.00,9.00,7.40
1956/09/22,0.00,25.25,38.00,12.50,5.50
1956/09/23,0.00,29.00,39.50,18.50,4.50
1956/09/24,0.00,24.75,38.00,11.50,4.60
1956/09/25,0.00,26.25,41.00,11.50,8.80
1956/09/26,0.00,26.00,40.50,11.50,5.60
1956/09/27,0.00,27.25,39.50,15.00,6.20
1956/09/28,0.00,24.75,39.00,10.50,8.70
1956/09/29,0.00,25.50,37.50,13.50,5.10
1956/09/30,0.00,24.00,34.00,14.00,7.50
1956/10/01,0.00,21.00,29.00,13.00,2.10
1956/10/02,0.00,21.00,28.00,14.00,5.20
1956/10/03,0.00,22.50,30.00,15.00,4.60
1956/10/04,0.00,19.50,27.00,12.00,3.00
1956/10/05,0.00,18.75,29.00,8.50,4.50
1956/10/06,0.00,18.25,27.00,9.50,5.10
1956/10/07,0.00,22.50,32.00,13.00,5.90
1956/10/08,0.00,15.50,23.00,8.00,3.40
1956/10/09,0.00,21.50,35.00,8.00,4.90
1956/10/10,0.00,24.00,37.00,11.00,6.70
1956/10/11,0.00,20.00,33.00,7.00,5.60
1956/10/12,0.00,18.00,27.00,9.00,4.90
1956/10/13,0.00,19.00,30.00,8.00,6.10
1956/10/14,0.00,18.00,30.50,5.50,2.40
1956/10/15,0.00,19.00,31.00,7.00,3.20
1956/10/16,0.00,18.25,30.50,6.00,7.20
1956/10/17,0.00,21.00,37.00,5.00,3.20
1956/10/18,0.00,17.25,29.00,5.50,4.90
1956/10/19,0.00,21.00,31.00,11.00,4.80
1956/10/20,0.00,18.50,27.00,10.00,5.70
1956/10/21,0.00,23.00,34.00,12.00,2.00
1956/10/22,0.00,18.50,24.00,13.00,4.00
1956/10/23,20.00,21.00,25.00,17.00,3.00
1956/10/24,0.00,16.00,23.00,9.00,4.00
1956/10/25,0.00,15.00,24.00,6.00,5.50
1956/10/26,0.00,21.00,29.00,13.00,1.70
1956/10/27,0.00,13.50,25.00,2.00,4.50
1956/10/28,22.00,13.50,18.00,9.00,3.50
1956/10/29,0.00,12.50,18.00,7.00,4.50
1956/10/30,0.00,13.50,23.00,4.00,5.30
1956/10/31,0.00,14.50,26.00,3.00,3.20
1956/11/01,0.00,17.50,30.00,5.00,4.70
1956/11/02,0.00,11.50,22.00,1.00,5.30
1956/11/03,0.00,13.00,17.00,9.00,2.20
1956/11/04,0.00,14.75,18.00,11.50,4.30
1956/11/05,0.00,12.50,23.00,2.00,5.30
1956/11/06,0.00,17.00,27.00,7.00,3.20
1956/11/07,0.00,19.00,30.00,8.00,5.60
1956/11/08,0.00,21.25,31.00,11.50,4.90
1956/11/09,0.00,20.50,30.00,11.00,6.70
1956/11/10,0.00,20.00,30.00,10.00,5.60
1956/11/11,0.00,19.50,32.00,7.00,6.30
1956/11/12,0.00,21.00,32.00,10.00,5.80
1956/11/13,0.00,20.50,31.00,10.00,4.30
1956/11/14,0.00,16.25,23.50,9.00,4.40
1956/11/15,0.00,14.00,20.00,8.00,5.10
1956/11/16,0.00,13.00,23.00,3.00,4.00
1956/11/17,0.00,14.00,25.00,3.00,3.30
1956/11/18,0.00,15.00,29.00,1.00,3.90
1956/11/19,0.00,12.75,23.00,2.50,6.20
1956/11/20,0.00,15.00,24.00,6.00,5.80
1956/11/21,0.00,16.50,29.00,4.00,8.00
1956/11/22,0.00,14.50,19.00,10.00,3.00
1956/11/23,0.00,18.00,24.00,12.00,4.20
1956/11/24,0.00,18.00,25.00,11.00,7.00
1956/11/25,0.00,17.25,23.50,11.00,7.10
1956/11/26,0.00,20.25,26.00,14.50,5.10
1956/11/27,0.00,17.00,29.00,5.00,4.50
1956/11/28,0.00,13.50,23.00,4.00,4.60
1956/11/29,0.00,15.00,23.00,7.00,4.50
1956/11/30,0.00,12.50,24.00,1.00,3.10
1956/12/01,0.00,16.00,25.00,7.00,4.80
1956/12/02,0.00,11.00,22.00,0.00,4.30
1956/12/03,0.00,17.50,25.00,10.00,4.80
1956/12/04,0.00,13.50,26.00,1.00,3.20
1956/12/05,0.00,15.50,27.00,4.00,6.90
1956/12/06,7.00,13.00,18.00,8.00,3.40
1956/12/07,0.00,14.50,18.00,11.00,5.30
1956/12/08,0.00,16.50,23.00,10.00,4.40
1956/12/09,0.00,16.50,25.00,8.00,4.40
1956/12/10,0.00,14.50,18.00,11.00,4.50
1956/12/11,0.00,11.15,22.00,0.30,3.10
1956/12/12,0.00,11.50,22.00,1.00,4.60
1956/12/13,0.00,16.00,25.00,7.00,3.00
1956/12/14,0.00,14.00,26.00,2.00,4.80
1956/12/15,0.00,12.50,22.00,3.00,5.30
1956/12/16,0.00,15.50,25.00,6.00,3.90
1956/12/17,0.00,14.25,20.50,8.00,4.90
1956/12/18,0.00,10.00,20.00,0.00,4.20
1956/12/19,0.00,10.50,20.00,1.00,4.60
1956/12/20,0.00,11.00,20.00,2.00,4.00
1956/12/21,0.00,14.00,26.00,2.00,4.40
1956/12/22,0.00,10.00,17.00,3.00,4.50
1956/12/23,0.00,12.00,20.00,4.00,3.40
1956/12/24,0.00,9.50,16.00,3.00,3.60
1956/12/25,0.00,13.00,23.00,3.00,2.60
1956/12/26,0.00,9.00,16.00,2.00,1.90
1956/12/27,0.00,7.00,12.00,2.00,1.50
1956/12/28,0.00,8.50,12.00,5.00,1.20
1956/12/29,0.00,8.00,12.00,4.00,2.90
1956/12/30,0.00,10.00,15.00,5.00,4.70
1956/12/31,0.00,9.50,14.00,5.00,4.80
1957/01/01,0.00,13.00,24.00,2.00,2.10
1957/01/02,11.00,9.00,17.00,1.00,2.00
1957/01/03,0.00,13.00,15.00,11.00,0.90
1957/01/04,0.00,10.25,15.00,5.50,2.50
1957/01/05,0.00,12.50,17.00,8.00,3.60
1957/01/06,0.00,13.25,18.00,8.50,2.00
1957/01/07,5.00,14.50,19.00,10.00,0.90
1957/01/08,7.50,14.00,17.00,11.00,1.10
1957/01/09,1.00,14.50,17.00,12.00,2.40
1957/01/10,0.00,16.00,18.00,14.00,2.30
1957/01/11,0.00,16.00,23.00,9.00,1.30
1957/01/12,0.00,16.50,24.00,9.00,3.10
1957/01/13,0.00,17.50,24.00,11.00,2.00
1957/01/14,0.00,16.75,21.50,12.00,1.50
1957/01/15,0.00,13.50,20.00,7.00,3.60
1957/01/16,0.00,17.00,26.00,8.00,2.20
1957/01/17,0.00,14.00,18.00,10.00,3.70
1957/01/18,0.00,10.50,21.00,0.00,3.60
1957/01/19,0.00,9.00,20.00,-2.00,2.90
1957/01/20,0.00,9.50,21.00,-2.00,4.40
1957/01/21,0.00,10.25,15.00,5.50,3.20
1957/01/22,0.00,8.50,14.00,3.00,2.80
1957/01/23,0.00,11.00,18.00,4.00,2.70
1957/01/24,0.00,9.50,19.00,0.00,3.50
1957/01/25,0.00,12.00,18.00,6.00,1.10
1957/01/26,7.00,12.00,16.00,8.00,0.90
1957/01/27,0.00,8.50,11.00,6.00,1.80
1957/01/28,0.00,7.50,12.00,3.00,2.30
1957/01/29,5.70,8.50,14.00,3.00,1.10
1957/01/30,0.00,10.50,19.00,2.00,2.50
1957/01/31,0.00,8.00,15.00,1.00,2.40
1957/02/01,0.00,14.00,20.00,8.00,4.70
1957/02/02,0.00,11.00,22.00,0.00,5.70
1957/02/03,0.00,9.25,15.00,3.50,2.80
1957/02/04,0.00,15.00,21.00,9.00,1.10
1957/02/05,0.00,12.00,19.00,5.00,3.20
1957/02/06,0.00,12.50,23.00,2.00,4.70
1957/02/07,0.00,13.50,26.00,1.00,4.70
1957/02/08,0.00,17.00,27.00,7.00,2.10
1957/02/09,0.00,19.50,28.00,11.00,0.90
1957/02/10,0.00,19.00,26.00,12.00,3.00
1957/02/11,0.00,19.50,29.00,10.00,3.70
1957/02/12,0.00,19.50,29.00,10.00,3.90
1957/02/13,0.00,24.00,37.00,11.00,4.20
1957/02/14,0.00,20.00,32.00,8.00,4.40
1957/02/15,0.00,15.25,22.00,8.50,2.60
1957/02/16,0.00,21.50,33.00,10.00,1.10
1957/02/17,0.00,12.50,15.00,10.00,1.60
1957/02/18,0.00,12.00,15.00,9.00,1.90
1957/02/19,0.00,15.50,21.00,10.00,6.20
1957/02/20,0.00,16.50,23.00,10.00,1.90
1957/02/21,4.00,13.50,18.00,9.00,1.50
1957/02/22,0.00,16.00,23.00,9.00,1.80
1957/02/23,0.00,14.00,18.00,10.00,2.10
1957/02/24,0.00,16.50,25.00,8.00,1.60
1957/02/25,0.00,16.50,27.00,6.00,3.40
1957/02/26,0.00,17.00,27.00,7.00,1.20
1957/02/27,0.00,18.50,30.00,7.00,4.90
1957/02/28,0.00,15.00,26.00,4.00,3.10
1957/03/01,0.00,15.00,21.00,9.00,3.20
1957/03/02,0.00,14.50,21.00,8.00,4.60
1957/03/03,0.00,15.00,22.00,8.00,3.10
1957/03/04,0.00,17.00,24.00,10.00,2.00
1957/03/05,0.00,14.00,21.00,7.00,2.80
1957/03/06,0.00,17.50,30.00,5.00,7.70
1957/03/07,0.00,18.50,31.00,6.00,3.90
1957/03/08,0.00,14.00,19.00,9.00,2.30
1957/03/09,9.00,14.50,23.00,6.00,2.30
1957/03/10,0.00,12.50,18.00,7.00,2.00
1957/03/11,0.00,15.00,22.00,8.00,1.80
1957/03/12,0.00,15.25,24.50,6.00,3.00
1957/03/13,0.00,13.00,21.00,5.00,1.10
1957/03/14,0.00,12.25,23.00,1.50,2.40
1957/03/15,0.00,14.25,26.00,2.50,3.50
1957/03/16,0.00,12.75,20.00,5.50,2.00
1957/03/17,0.00,9.75,19.50,0.00,3.20
1957/03/18,16.00,10.25,20.50,0.00,0.50
1957/03/19,7.50,13.50,18.00,9.00,0.60
1957/03/20,0.00,13.50,20.00,7.00,2.80
1957/03/21,0.00,14.50,20.00,9.00,1.90
1957/03/22,0.00,11.00,17.00,5.00,2.60
1957/03/23,0.00,10.00,18.00,2.00,3.30
1957/03/24,0.00,13.50,21.00,6.00,4.00
1957/03/25,0.00,12.50,22.00,3.00,4.40
1957/03/26,0.00,16.50,29.00,4.00,2.50
1957/03/27,0.00,11.50,21.00,2.00,2.50
1957/03/28,0.00,18.00,27.00,9.00,1.60
1957/03/29,0.00,19.50,30.00,9.00,3.30
1957/03/30,0.00,17.50,24.00,11.00,4.30
1957/03/31,0.00,12.50,20.00,5.00,3.00
1957/04/01,0.00,13.00,19.00,7.00,4.90
1957/04/02,0.00,12.50,20.00,5.00,4.20
1957/04/03,0.00,13.50,21.00,6.00,3.90
1957/04/04,0.00,15.50,24.00,7.00,6.80
1957/04/05,0.00,17.00,28.00,6.00,8.00
1957/04/06,0.00,18.00,27.00,9.00,7.10
1957/04/07,0.00,17.00,26.00,8.00,5.10
1957/04/08,0.00,17.00,29.00,5.00,5.00
1957/04/09,0.00,16.00,25.00,7.00,4.10
1957/04/10,0.00,16.00,26.00,6.00,6.40
1957/04/11,0.00,16.00,25.00,7.00,4.00
1957/04/12,0.00,20.00,29.00,11.00,4.70
1957/04/13,0.00,19.50,31.00,8.00,5.20
1957/04/14,0.00,17.00,30.00,4.00,4.20
1957/04/15,0.00,16.50,27.00,6.00,4.50
1957/04/16,0.00,17.00,27.00,7.00,5.90
1957/04/17,0.00,15.50,25.00,6.00,3.60
1957/04/18,0.00,20.00,32.00,8.00,5.10
1957/04/19,0.00,14.00,22.00,6.00,5.50
1957/04/20,0.00,12.00,19.00,5.00,4.30
1957/04/21,0.00,14.50,22.00,7.00,5.70
1957/04/22,0.00,14.00,24.00,4.00,1.30
1957/04/23,0.00,13.50,22.00,5.00,5.60
1957/04/24,0.00,16.00,26.00,6.00,3.30
1957/04/25,0.00,18.00,28.00,8.00,4.20
1957/04/26,0.00,18.50,28.00,9.00,2.90
1957/04/27,0.00,15.50,26.00,5.00,5.80
1957/04/28,0.00,16.00,28.00,4.00,3.30
1957/04/29,0.00,18.00,30.00,6.00,4.60
1957/04/30,0.00,14.00,22.00,6.00,3.70
1957/05/01,0.00,16.75,29.00,4.50,3.50
1957/05/02,0.00,17.00,31.00,3.00,3.70
1957/05/03,0.00,18.50,32.00,5.00,3.10
1957/05/04,0.00,18.00,30.00,6.00,6.80
1957/05/05,0.00,16.00,27.00,5.00,6.20
1957/05/06,0.00,15.00,24.00,6.00,6.20
1957/05/07,0.00,16.00,21.00,11.00,4.20
1957/05/08,0.00,17.00,24.00,10.00,5.40
1957/05/09,0.00,16.25,23.00,9.50,4.40
1957/05/10,0.00,14.75,20.00,9.50,5.70
1957/05/11,0.00,14.50,20.00,9.00,3.50
1957/05/12,0.00,16.00,23.00,9.00,4.40
1957/05/13,0.00,16.00,26.00,6.00,6.90
1957/05/14,0.00,16.50,25.00,8.00,7.10
1957/05/15,0.00,16.00,23.00,9.00,3.50
1957/05/16,0.00,16.50,28.00,5.00,7.30
1957/05/17,0.00,17.50,29.00,6.00,5.50
1957/05/18,0.00,18.00,28.00,8.00,6.10
1957/05/19,0.00,16.00,25.00,7.00,6.10
1957/05/20,0.00,16.50,24.00,9.00,5.90
1957/05/21,0.00,15.50,22.00,9.00,3.00
1957/05/22,0.00,14.50,22.00,7.00,6.10
1957/05/23,0.00,17.00,23.00,11.00,3.80
1957/05/24,0.00,19.00,28.00,10.00,5.70
1957/05/25,0.00,18.00,29.00,7.00,6.40
1957/05/26,0.00,20.50,34.00,7.00,7.20
1957/05/27,0.00,20.50,32.00,9.00,5.50
1957/05/28,0.00,18.50,30.00,7.00,5.10
1957/05/29,0.00,14.00,26.00,2.00,2.00
1957/05/30,0.00,19.50,29.00,10.00,2.70
1957/05/31,0.00,19.50,29.00,10.00,3.70
1957/06/01,0.00,23.50,37.00,10.00,7.10
1957/06/02,0.00,24.50,37.00,12.00,10.30
1957/06/03,0.00,29.00,46.00,12.00,11.70
1957/06/04,0.00,26.00,41.00,11.00,7.70
1957/06/05,0.00,27.00,40.00,14.00,9.50
1957/06/06,0.00,28.00,37.00,19.00,8.70
1957/06/07,0.00,24.00,32.00,16.00,9.00
1957/06/08,0.00,18.00,25.00,11.00,8.80
1957/06/09,0.00,20.00,28.00,12.00,4.30
1957/06/10,0.00,19.00,28.00,10.00,6.30
1957/06/11,0.00,22.00,35.00,9.00,6.60
1957/06/12,0.00,17.00,23.00,11.00,6.00
1957/06/13,0.00,20.00,30.00,10.00,7.40
1957/06/14,0.00,19.00,28.00,10.00,5.10
1957/06/15,0.00,18.00,26.00,10.00,5.30
1957/06/16,0.00,19.00,31.00,7.00,6.80
1957/06/17,0.00,24.50,36.00,13.00,9.40
1957/06/18,0.00,25.50,40.00,11.00,8.70
1957/06/19,0.00,27.50,41.00,14.00,9.50
1957/06/20,0.00,23.50,36.00,11.00,12.60
1957/06/21,0.00,22.50,34.00,11.00,9.00
1957/06/22,0.00,23.00,37.00,9.00,7.50
1957/06/23,0.00,26.00,40.00,12.00,8.80
1957/06/24,0.00,31.00,43.00,19.00,9.60
1957/06/25,0.00,26.50,40.00,13.00,13.70
1957/06/26,0.00,26.50,41.00,12.00,6.40
1957/06/27,0.00,26.00,34.00,18.00,7.00
1957/06/28,0.00,20.50,30.00,11.00,4.50
1957/06/29,0.00,17.50,25.00,10.00,4.30
1957/06/30,0.00,24.00,38.00,10.00,7.00
1957/07/01,0.00,28.50,42.00,15.00,5.90
1957/07/02,0.00,29.50,40.00,19.00,8.90
1957/07/03,0.00,31.00,43.00,19.00,9.10
1957/07/04,0.00,31.50,43.00,20.00,11.20
1957/07/05,0.00,27.50,33.00,22.00,5.90
1957/07/06,0.00,22.50,25.00,20.00,4.80
1957/07/07,0.00,25.00,40.00,10.00,8.40
1957/07/08,0.00,28.50,41.00,16.00,9.20
1957/07/09,0.00,30.50,39.00,22.00,8.70
1957/07/10,0.00,27.50,40.00,15.00,8.60
1957/07/11,0.00,27.50,33.00,22.00,6.60
1957/07/12,0.00,29.50,40.00,19.00,8.60
1957/07/13,0.00,25.50,40.00,11.00,9.00
1957/07/14,0.00,25.00,32.00,18.00,8.20
1957/07/15,0.00,22.50,31.00,14.00,9.60
1957/07/16,0.00,27.50,42.00,13.00,8.40
1957/07/17,0.00,26.50,40.00,13.00,8.50
1957/07/18,0.00,21.00,30.00,12.00,7.40
1957/07/19,0.00,25.50,39.00,12.00,9.60
1957/07/20,0.00,26.50,39.00,14.00,9.30
1957/07/21,0.00,24.50,38.00,11.00,8.10
1957/07/22,0.00,26.00,41.00,11.00,11.10
1957/07/23,0.00,26.50,39.00,14.00,8.70
1957/07/24,0.00,27.50,41.00,14.00,7.50
1957/07/25,0.00,26.50,37.00,16.00,9.40
1957/07/26,0.00,23.50,35.00,12.00,8.60
1957/07/27,0.00,25.50,38.00,13.00,8.30
1957/07/28,0.00,28.00,40.00,16.00,9.80
1957/07/29,0.00,31.50,43.00,20.00,8.30
1957/07/30,0.00,32.50,44.00,21.00,9.60
1957/07/31,0.00,32.50,44.00,21.00,8.50
1957/08/01,0.00,29.50,39.00,20.00,8.20
1957/08/02,0.00,28.00,37.00,19.00,4.00
1957/08/03,0.00,24.50,36.00,13.00,9.50
1957/08/04,0.00,29.50,40.00,19.00,8.60
1957/08/05,0.00,22.50,35.00,10.00,6.90
1957/08/06,0.00,23.00,35.00,11.00,7.80
1957/08/07,0.00,25.50,39.00,12.00,7.80
1957/08/08,0.00,26.50,41.00,12.00,7.60
1957/08/09,0.00,27.00,39.00,15.00,7.90
1957/08/10,0.00,27.00,38.00,16.00,8.30
1957/08/11,0.00,25.00,36.00,14.00,6.80
1957/08/12,0.00,27.50,38.00,17.00,9.00
1957/08/13,0.00,27.00,36.00,18.00,7.30
1957/08/14,0.00,28.00,36.00,20.00,9.70
1957/08/15,0.00,29.50,40.00,19.00,10.70
1957/08/16,0.00,23.50,39.00,8.00,7.60
1957/08/17,0.00,26.50,37.00,16.00,8.20
1957/08/18,0.00,28.50,37.00,20.00,5.00
1957/08/19,2.50,27.75,36.00,19.50,0.80
1957/08/20,0.00,27.00,33.00,21.00,6.90
1957/08/21,0.00,27.50,37.00,18.00,9.60
1957/08/22,0.00,28.00,37.00,19.00,5.50
1957/08/23,0.00,31.50,40.00,23.00,6.50
1957/08/24,0.00,30.00,39.00,21.00,4.70
1957/08/25,0.00,29.50,38.00,21.00,7.10
1957/08/26,0.00,30.00,38.00,22.00,5.10
1957/08/27,0.00,29.50,40.00,19.00,5.10
1957/08/28,0.00,28.00,38.00,18.00,5.40
1957/08/29,0.00,25.50,36.00,15.00,7.80
1957/08/30,0.00,24.00,33.00,15.00,8.90
1957/08/31,0.00,23.50,38.00,9.00,6.70
1957/09/01,0.00,24.00,37.00,11.00,7.90
1957/09/02,0.00,26.00,38.00,14.00,7.00
1957/09/03,0.00,26.50,41.00,12.00,8.00
1957/09/04,0.00,28.00,40.00,16.00,1.10
1957/09/05,0.00,29.00,42.00,16.00,12.90
1957/09/06,0.00,30.50,42.00,19.00,5.90
1957/09/07,0.00,29.50,40.00,19.00,8.60
1957/09/08,0.00,29.50,40.00,19.00,6.00
1957/09/09,0.00,28.50,38.00,19.00,11.90
1957/09/10,0.00,29.00,38.00,20.00,7.50
1957/09/11,0.00,29.00,37.00,21.00,9.00
1957/09/12,0.00,23.50,35.00,12.00,17.80
1957/09/13,0.00,20.50,30.00,11.00,6.00
1957/09/14,0.00,24.50,35.00,14.00,8.40
1957/09/15,0.00,25.50,39.00,12.00,11.50
1957/09/16,0.00,23.00,32.00,14.00,0.30
1957/09/17,0.00,21.50,31.00,12.00,6.50
1957/09/18,0.00,21.50,33.00,10.00,4.90
1957/09/19,0.00,20.50,31.00,10.00,4.00
1957/09/20,0.00,17.00,23.00,11.00,8.80
1957/09/21,0.00,22.00,31.00,13.00,9.30
1957/09/22,0.00,22.50,36.00,9.00,8.40
1957/09/23,0.00,21.50,32.00,11.00,5.60
1957/09/24,0.00,24.00,36.00,12.00,4.50
1957/09/25,0.00,26.50,37.00,16.00,6.20
1957/09/26,0.00,27.00,38.00,16.00,5.60
1957/09/27,0.00,26.00,36.00,16.00,5.40
1957/09/28,0.00,27.50,38.00,17.00,5.90
1957/09/29,0.00,26.00,38.00,14.00,7.80
1957/09/30,0.00,25.00,36.00,14.00,6.60
1957/10/01,0.00,24.50,35.00,14.00,4.00
1957/10/02,0.00,23.50,31.00,16.00,2.90
1957/10/03,0.00,24.50,37.00,12.00,5.10
1957/10/04,0.00,20.00,30.00,10.00,2.70
1957/10/05,0.00,19.50,27.00,12.00,3.20
1957/10/06,0.00,16.00,27.00,5.00,6.00
1957/10/07,0.00,17.50,30.00,5.00,4.40
1957/10/08,0.00,19.50,32.00,7.00,5.10
1957/10/09,0.00,20.00,30.00,10.00,4.50
1957/10/10,0.00,20.50,31.00,10.00,3.60
1957/10/11,5.00,19.00,29.00,9.00,3.40
1957/10/12,0.00,18.00,24.00,12.00,2.20
1957/10/13,5.60,15.00,20.00,10.00,6.80
1957/10/14,0.00,17.50,26.00,9.00,3.00
1957/10/15,0.00,19.50,24.00,15.00,1.20
1957/10/16,0.00,17.50,25.00,10.00,2.00
1957/10/17,0.00,20.00,27.00,13.00,1.60
1957/10/18,0.00,18.50,27.00,10.00,2.40
1957/10/19,0.00,20.50,25.00,16.00,1.70
1957/10/20,0.00,17.50,23.00,12.00,8.10
1957/10/21,0.00,14.50,20.00,9.00,5.10
1957/10/22,0.00,18.50,24.00,13.00,2.90
1957/10/23,0.00,21.00,25.00,17.00,3.10
1957/10/24,0.00,16.50,27.00,6.00,4.90
1957/10/25,0.00,18.50,29.00,8.00,4.50
1957/10/26,0.00,19.00,30.00,8.00,4.90
1957/10/27,0.00,17.00,22.00,12.00,4.30
1957/10/28,0.00,16.50,23.00,10.00,4.70
1957/10/29,0.00,21.50,33.00,10.00,2.50
1957/10/30,0.00,18.00,25.00,11.00,4.10
1957/10/31,0.00,17.50,21.00,14.00,3.20
1957/11/01,0.00,16.00,22.00,10.00,1.00
1957/11/02,0.00,15.50,20.00,11.00,2.00
1957/11/03,0.00,15.50,19.00,12.00,2.70
1957/11/04,0.00,15.00,19.00,11.00,2.50
1957/11/05,0.00,8.00,12.00,4.00,2.60
1957/11/06,0.00,12.00,20.00,4.00,1.30
1957/11/07,0.00,11.50,20.00,3.00,1.50
1957/11/08,0.00,13.50,24.00,3.00,2.50
1957/11/09,0.00,13.00,22.00,4.00,2.70
1957/11/10,0.00,13.00,24.00,2.00,1.40
1957/11/11,0.00,13.50,23.00,4.00,1.90
1957/11/12,0.00,14.50,24.00,5.00,2.10
1957/11/13,0.00,17.00,25.00,9.00,2.80
1957/11/14,0.00,14.50,24.00,5.00,1.60
1957/11/15,0.00,15.50,22.00,9.00,2.30
1957/11/16,0.00,10.00,18.00,2.00,1.70
1957/11/17,0.00,13.00,17.00,9.00,4.70
1957/11/18,0.00,11.50,18.00,5.00,2.30
1957/11/19,0.00,12.50,23.00,2.00,2.40
1957/11/20,0.00,13.50,22.00,5.00,3.20
1957/11/21,0.00,12.50,22.00,3.00,1.40
1957/11/22,0.00,9.00,12.00,6.00,1.90
1957/11/23,0.00,11.00,18.00,4.00,2.10
1957/11/24,0.00,14.00,25.00,3.00,2.40
1957/11/25,0.00,20.00,24.00,16.00,1.70
1957/11/26,0.00,12.00,24.00,0.00,2.20
1957/11/27,0.00,11.50,22.00,1.00,1.60
1957/11/28,0.00,12.00,22.00,2.00,2.20
1957/11/29,0.00,11.50,18.00,5.00,4.00
1957/11/30,0.00,7.00,13.00,1.00,2.50
1957/12/01,0.00,11.00,20.00,2.00,9.00
1957/12/02,0.00,11.50,20.00,3.00,3.90
1957/12/03,0.00,14.50,21.00,8.00,6.30
1957/12/04,0.00,17.00,23.00,11.00,3.10
1957/12/05,0.00,15.50,21.00,10.00,0.70
1957/12/06,0.00,15.50,21.00,10.00,2.00
1957/12/07,0.00,16.50,22.00,11.00,6.70
1957/12/08,0.00,18.50,25.00,12.00,2.60
1957/12/09,0.00,15.00,25.00,5.00,3.10
1957/12/10,0.00,17.50,24.00,11.00,2.20
1957/12/11,0.00,13.50,24.00,3.00,3.10
1957/12/12,0.00,12.50,22.00,3.00,4.90
1957/12/13,0.00,12.50,24.00,1.00,3.60
1957/12/14,0.00,14.50,25.00,4.00,4.40
1957/12/15,0.00,17.00,24.00,10.00,3.90
1957/12/16,0.00,18.50,23.00,14.00,4.40
1957/12/17,0.00,16.50,20.00,13.00,2.90
1957/12/18,0.00,12.50,18.00,7.00,2.40
1957/12/19,0.00,15.00,21.00,9.00,1.70
1957/12/20,0.00,11.00,21.00,1.00,2.80
1957/12/21,0.00,13.50,25.00,2.00,1.20
1957/12/22,0.00,14.50,28.00,1.00,2.50
1957/12/23,0.00,13.50,22.00,5.00,2.20
1957/12/24,0.00,12.50,20.00,5.00,2.30
1957/12/25,0.00,11.50,20.00,3.00,3.50
1957/12/26,0.00,15.00,24.00,6.00,3.20
1957/12/27,0.00,14.00,22.00,6.00,1.30
1957/12/28,0.00,12.50,23.00,2.00,1.40
1957/12/29,0.00,11.50,22.00,1.00,3.90
1957/12/30,0.00,11.50,21.00,2.00,2.40
1957/12/31,0.00,14.00,22.00,6.00,4.00
1958/01/01,0.00,14.50,22.00,7.00,0.70
1958/01/02,0.00,11.00,21.00,1.00,0.70
1958/01/03,0.00,11.50,20.00,3.00,2.70
1958/01/04,0.00,9.50,18.00,1.00,0.60
1958/01/05,0.00,14.00,19.00,9.00,2.80
1958/01/06,0.00,14.00,19.00,9.00,1.20
1958/01/07,0.00,14.50,22.00,7.00,2.00
1958/01/08,0.00,10.50,20.00,1.00,1.90
1958/01/09,0.00,12.50,21.00,4.00,3.60
1958/01/10,0.00,14.00,23.00,5.00,1.30
1958/01/11,0.00,15.50,28.00,3.00,3.50
1958/01/12,0.00,15.00,29.00,1.00,1.00
1958/01/13,0.00,13.00,24.00,2.00,2.10
1958/01/14,0.00,10.00,17.00,3.00,2.50
1958/01/15,0.00,13.00,20.00,6.00,3.50
1958/01/16,0.00,13.50,20.00,7.00,0.70
1958/01/17,0.00,13.00,19.00,7.00,0.70
1958/01/18,0.00,11.00,16.00,6.00,1.60
1958/01/19,0.00,10.00,19.00,1.00,1.30
1958/01/20,0.00,11.00,20.00,2.00,5.30
1958/01/21,0.00,14.00,19.00,9.00,2.20
1958/01/22,0.00,9.50,17.00,2.00,2.30
1958/01/23,0.00,13.00,22.00,4.00,1.10
1958/01/24,0.00,11.00,20.00,2.00,1.80
1958/01/25,0.00,13.50,23.00,4.00,4.50
1958/01/26,0.00,11.50,19.00,4.00,4.40
1958/01/27,0.00,13.00,20.00,6.00,1.10
1958/01/28,0.00,12.00,23.00,1.00,2.20
1958/01/29,0.00,15.00,29.00,1.00,3.10
1958/01/30,0.00,14.50,26.00,3.00,4.00
1958/01/31,0.00,14.50,26.00,3.00,2.90
1958/02/01,0.00,12.50,22.00,3.00,2.50
1958/02/02,0.00,12.50,23.00,2.00,1.80
1958/02/03,2.00,8.50,16.00,1.00,7.10
1958/02/04,1.00,12.00,15.00,9.00,4.50
1958/02/05,0.00,14.00,19.00,9.00,2.40
1958/02/06,0.00,10.00,19.00,1.00,1.10
1958/02/07,0.00,13.00,22.00,4.00,2.80
1958/02/08,0.00,13.50,22.00,5.00,2.10
1958/02/09,0.00,13.50,20.00,7.00,1.50
1958/02/10,0.00,13.50,22.00,5.00,1.60
1958/02/11,0.00,10.50,20.00,1.00,4.40
1958/02/12,0.00,14.50,24.00,5.00,2.40
1958/02/13,0.00,13.50,18.00,9.00,4.40
1958/02/14,0.00,14.00,24.00,4.00,4.30
1958/02/15,0.00,11.50,19.00,4.00,2.50
1958/02/16,0.00,15.50,25.00,6.00,2.90
1958/02/17,0.00,13.50,22.00,5.00,2.70
1958/02/18,0.00,13.00,22.00,4.00,2.40
1958/02/19,0.00,14.00,23.00,5.00,2.40
1958/02/20,16.00,13.00,18.00,8.00,3.60
1958/02/21,0.00,13.00,21.00,5.00,1.70
1958/02/22,0.00,11.50,18.00,5.00,2.00
1958/02/23,0.00,11.00,12.00,10.00,1.70
1958/02/24,0.00,16.00,23.00,9.00,2.50
1958/02/25,0.00,9.50,17.00,2.00,4.00
1958/02/26,0.00,13.50,19.00,8.00,3.10
1958/02/27,0.00,14.00,18.00,10.00,2.10
1958/02/28,0.00,7.50,14.00,1.00,3.70
1958/03/01,0.00,11.00,17.00,5.00,4.60
1958/03/02,0.00,10.50,21.00,0.00,4.00
1958/03/03,5.50,12.00,19.00,5.00,4.00
1958/03/04,0.00,10.50,17.00,4.00,3.70
1958/03/05,0.00,12.00,18.00,6.00,2.30
1958/03/06,20.00,8.00,15.00,1.00,4.30
1958/03/07,0.00,10.50,14.00,7.00,3.70
1958/03/08,0.00,10.00,19.00,1.00,2.80
1958/03/09,0.00,9.00,17.00,1.00,2.90
1958/03/10,0.00,10.50,19.00,2.00,4.40
1958/03/11,0.00,13.00,20.00,6.00,2.70
1958/03/12,0.00,11.00,17.00,5.00,4.00
1958/03/13,0.00,12.00,21.00,3.00,3.00
1958/03/14,0.00,14.50,24.00,5.00,1.90
1958/03/15,0.00,17.00,24.00,10.00,1.60
1958/03/16,0.00,16.00,22.00,10.00,1.70
1958/03/17,0.00,15.50,20.00,11.00,3.50
1958/03/18,0.00,15.50,23.00,8.00,1.60
1958/03/19,0.00,14.00,23.00,5.00,3.70
1958/03/20,0.00,15.50,24.00,7.00,2.60
1958/03/21,20.00,15.50,21.00,10.00,1.60
1958/03/22,0.00,14.00,19.00,9.00,5.20
1958/03/23,0.00,14.50,23.00,6.00,2.60
1958/03/24,0.00,13.50,20.00,7.00,1.80
1958/03/25,0.00,14.00,22.00,6.00,3.10
1958/03/26,0.00,12.50,20.00,5.00,3.60
1958/03/27,1.60,14.50,20.00,9.00,1.90
1958/03/28,0.00,13.00,18.00,8.00,3.30
1958/03/29,0.00,17.50,30.00,5.00,1.50
1958/03/30,0.00,12.00,20.00,4.00,3.90
1958/03/31,0.00,13.50,20.00,7.00,2.00
1958/04/01,0.00,13.50,20.00,7.00,2.60
1958/04/02,0.00,12.00,18.00,6.00,2.30